This demonstration page uses our WeatherBlox Daily Observations layout. Learn more.

38.88101, -77.10428

Hourly Observations for October 8, 2016

Temp ( °F °C ) Dew Point ( °F °C ) Humidity (%) Winds ( mph kmh ) Pressure ( in mb ) Visibility ( mi km ) Precip ( " mm )
12:41 am 00:41 Cloudy 66 18.9 64 17.8 93 93 ENE 6 9 30.12 1020 10 16.09344 0 0
12:52 am 00:52 Cloudy 66 18.9 64 17.8 93 93 NE 6 9 30.12 1020 10 16.09344 0 0
1:52 am 01:52 Cloudy 66 18.9 64 17.8 93 93 NE 8 13 30.12 1020 10 16.09344 0 0
2:06 am 02:06 Cloudy 66 18.9 64 17.8 93 93 NNE 8 13 30.12 1020 10 16.09344 0 0
2:52 am 02:52 Cloudy 66 18.9 64 17.8 93 93 NE 8 13 30.09 1019 10 16.09344 0 0
3:11 am 03:11 Cloudy 66 18.9 64 17.8 93 93 NNE 7 11 30.09 1019 10 16.09344 0 0
3:52 am 03:52 Cloudy 66 18.9 64 17.8 93 93 NE 8 13 30.09 1019 10 16.09344 0 0
4:52 am 04:52 Cloudy 66 18.9 64 17.8 93 93 NE 9 15 30.09 1019 10 16.09344 0 0
5:52 am 05:52 Cloudy 65 18.3 64 17.8 97 97 NNE 10 17 30.06 1018 10 16.09344 0 0
6:52 am 06:52 Cloudy 66 18.9 64 17.8 93 93 NE 7 11 30.09 1019 10 16.09344 0 0
7:52 am 07:52 Cloudy 65 18.3 64 17.8 97 97 NNE 6 9 30.06 1018 10 16.09344 0 0
8:52 am 08:52 Cloudy 66 18.9 64 17.8 93 93 N 7 11 30.06 1018 10 16.09344 0.001 0.001
9:52 am 09:52 Cloudy with Light Rain 66 18.9 64 17.8 93 93 NNE 7 11 30.06 1018 9 14.484096 0.001 0.001
10:52 am 10:52 Cloudy with Light Rain 66 18.9 65 18.3 96 96 NNE 9 15 30.06 1018 9 14.484096 0.001 0.001
11:52 am 11:52 Cloudy with Light Rain 67 19.4 65 18.3 93 93 NE 10 17 30.06 1018 6 9.656064 0.02 0.508
12:52 pm 12:52 Cloudy with Light Rain 66 19 66 19 100 100 NE 9 15 30.06 1018 5 8.04672 0 0
1:52 pm 13:52 Cloudy with Light Rain 67 19.4 66 18.9 97 97 NE 10 17 30.03 1017 4 6.437376 0.04 1.016
2:08 pm 14:08 Cloudy with Rain 66 19 66 19 100 100 NE 9 15 30 1016 4 6.437376 0 0
2:40 pm 14:40 Cloudy with Rain 66 19 66 19 100 100 NE 8 13 30 1016 4 6.437376 0 0
2:52 pm 14:52 Cloudy with Light Rain 67 19.4 67 19.4 100 100 ENE 7 11 30 1016 4 6.437376 0.08 2.032
3:52 pm 15:52 Cloudy with Light Rain 67 19.4 65 18.3 93 93 NNE 7 11 30 1016 10 16.09344 0.04 1.016
4:52 pm 16:52 Cloudy with Light Rain 67 19.4 65 18.3 93 93 NE 9 15 30 1016 10 16.09344 0.001 0.001
5:52 pm 17:52 Cloudy 66 18.9 65 18.3 96 96 N 7 11 29.97 1015 10 16.09344 0.01 0.254
6:11 pm 18:11 Cloudy 66 18.9 65 18.3 96 96 N 9 15 30 1016 10 16.09344 0 0
6:23 pm 18:23 Cloudy 66 19 64 18 94 94 N 12 19 30 1016 10 16.09344 0 0
6:33 pm 18:33 Cloudy 66 18.9 65 18.3 96 96 NNE 8 13 30 1016 10 16.09344 0 0
6:52 pm 18:52 Cloudy 66 18.9 65 18.3 96 96 NNE 9 15 29.97 1015 10 16.09344 0 0
6:58 pm 18:58 Cloudy 66 19 64 18 94 94 N 10 17 30 1016 10 16.09344 0 0
7:52 pm 19:52 Cloudy 66 18.9 64 17.8 93 93 NNE 9 15 29.97 1015 10 16.09344 0 0
8:52 pm 20:52 Cloudy 66 18.9 64 17.8 93 93 N 12 19 29.97 1015 10 16.09344 0 0
9:21 pm 21:21 Cloudy 66 18.9 64 17.8 93 93 N 9 15 29.97 1015 10 16.09344 0 0
9:52 pm 21:52 Cloudy 66 18.9 65 18.3 96 96 N 10 17 29.97 1015 10 16.09344 0 0
10:27 pm 22:27 Mostly Cloudy 67 19.4 65 18.3 93 93 N 9 15 30 1016 10 16.09344 0 0
10:37 pm 22:37 Cloudy 67 19.4 65 18.3 93 93 N 9 15 29.97 1015 10 16.09344 0 0
10:52 pm 22:52 Cloudy 67 19.4 65 18.3 93 93 N 14 22 29.97 1015 10 16.09344 0 0
11:15 pm 23:15 Cloudy 67 19.4 64 17.8 91 91 NNE 15 24 29.97 1015 9 14.484096 0 0
11:52 pm 23:52 Cloudy 67 19.4 64 17.8 91 91 N 17 28 29.97 1015 9 14.484096 0.001 0.001

Powered by AerisWeather